OneWeb SL0569

operational
NORAD ID: 55148 Int'l Des: 2023-004 Owner: ONEWEBN Country: UK Constellation: oneweb
LEOCIRCULARPOLARONEWEB_TYPE

About OneWeb SL0569

Description loading...

Live Position

Loading 3D Globe...

Upcoming Passes

Altitude History

Altitude vs Time

uPlot chart will show altitude changes over time

Two-Line Element Set

1 55148U 23004J 26102.34303722 .00000003 00000-0 -25513-4 0 9991
2 55148 87.8994 333.3279 0002369 64.1999 295.9375 13.13469141161537
Epoch: Apr 12, 2026 • Age: 8 hours

Current Status

Altitude 1224.2 km
Velocity 7.24 km/s
Sub-Earth Point -34.00°S, 64.31°E
Launch Date Jan 10, 2023
Age 3.2 years
Type internet

Technical Details

Classification Payload
Mass 148.00 kg
Dry Mass 140.00 kg
Total Mass 148.00 kg
Length 1.30 m
Diameter 1.00 m
Span 5.00 m
Shape Trapezoid+2 pan
Manufacturer ONEWUS
Bus Type ARROW
Phase Status In Orbit
Owner/State ONEWEBN/UK

Large Constellations

Loading constellations...